Skip Page Navigation
NASA JPL Caltech
NASA Logo - Jet Propulsion Laboratory + View the NASA Portal
+ Near-Earth Object (NEO) Program
Search JPL
JPL Home Earth Solar System Stars & Galaxies Technology
JPL Solar System Dynamics
BODIES ORBITS EPHEMERIDES TOOLS PHYSICAL DATA DISCOVERY FAQ SITE MAP
JPL Small-Body Database Browser
Search: [ help ]  
196625 (2003 RM10)
Classification: Apollo [NEO, PHA]          SPK-ID: 2196625
Ephemeris | Orbit Diagram | Orbital Elements | Physical Parameters | Discovery Circumstances | Close-Approach Data ]

[ hide orbit diagram ]
Orbit Diagram
Note: Make sure you have Java enabled on your browser to see the applet. This applet is provided as a 3D orbit visualization tool. The applet was implemented using 2-body methods, and hence should not be used for determining accurate long-term trajectories (over several years or decades) or planetary encounter circumstances. For accurate long-term ephemerides, please instead use our Horizons system.
Orbit Viewer

Additional Notes: the orbits shown in the applet are color coded. The planets are white lines, and the asteroid/comet is a blue line. The bright white line indicates the portion of the orbit that is above the ecliptic plane, and the darker portion is below the ecliptic plane. Likewise for the asteroid/comet orbit, the light blue indicates the portion above the ecliptic plane, and the dark blue the portion below the ecliptic plane.

Orbit Viewer applet originally written and kindly provided by Osamu Ajiki (AstroArts), and further modified by Ron Baalke (JPL).


Orbital Elements at Epoch 2456400.5 (2013-Apr-18.0) TDB
Reference: JPL 36 (heliocentric ecliptic J2000)
 Element Value Uncertainty (1-sigma)   Units 
e .5921746177060903 2.792e-07  
a 1.846457300120725 7.8137e-09 AU
q .7530321543111151 5.1601e-07 AU
i 13.72377434722476 2.7879e-05 deg
node 341.414488506385 3.6386e-05 deg
peri 287.1734776499235 6.359e-05 deg
M 318.0294444724921 1.3155e-05 deg
tp 2456507.343854463889
(2013-Aug-02.84385446)
3.381e-05 JED
period 916.4469500955358
2.51
5.8172e-06
1.593e-08
d
yr
n .3928214284116189 2.4935e-09 deg/d
Q 2.939882445930335 1.2441e-08 AU
  Orbit Determination Parameters
   # obs. used (total)      399  
   data-arc span      3683 days (10.08 yr)  
   first obs. used      1998-09-19  
   last obs. used      2008-10-19  
   planetary ephem.      DE405  
   SB-pert. ephem.      SB405-CPV-2  
   condition code      0  
   fit RMS      .41444  
   data source      ORB  
   producer      Otto Matic  
   solution date      2013-Apr-29 15:40:29  

Additional Information
 Earth MOID = .00529778 AU 
 T_jup = 3.751 
[ show covariance matrix ]

Ephemeris | Orbit Diagram | Orbital Elements | Physical Parameters | Discovery Circumstances | Close-Approach Data ]

Physical Parameter Table
Parameter Symbol Value Units Sigma Reference Notes
absolute magnitude H 20.245 mag .33959 36 autocmod 2.5c

196625 (2003 RM10)          Discovered 2003-Sep-13 by LONEOS at Anderson Mesa (699)
Reference: 20081113/Numbers.arcLast Updated: 2008-11-17

[ show close-approach data ]
Ephemeris | Orbit Diagram | Orbital Elements | Physical Parameters | Discovery Circumstances | Close-Approach Data ]
ABOUT SSD CREDITS/AWARDS PRIVACY/COPYRIGHT GLOSSARY LINKS
FirstGov 2013-May-24 09:25 UT
(server date/time)  
NASA Home Page
Site Manager:   Donald K. Yeomans
Webmaster  Alan B. Chamberlin